This is the latest recevied weather packets stored in our database for station/object SP3ZBZ-13. If no packets are shown the sender has not sent any weather packets the latest 10 day(s).
| Time | Temp. | Humidity | Pressure | Rain* | Wind** | Luminosity | Snow |
|---|---|---|---|---|---|---|---|
| 1788084998 | 23.33° C | 62% | 1007 hPa | - | - | 594 W/m² | - |
| 1788084098 | 22.78° C | 62% | 1007 hPa | - | - | 585 W/m² | - |
| 1788083197 | 22.78° C | 66% | 1007.2 hPa | - | - | 567 W/m² | - |
| 1788082298 | 21.67° C | 66% | 1007.3 hPa | - | - | 255 W/m² | - |
| 1788081395 | 21.67° C | 66% | 1007.3 hPa | - | - | 242 W/m² | - |
| 1788080493 | 21.11° C | 68% | 1007.4 hPa | - | - | 313 W/m² | - |
| 1788079592 | 20.56° C | 67% | 1007.5 hPa | - | - | 249 W/m² | - |
| 1788078692 | 20.56° C | 67% | 1007.5 hPa | - | - | 185 W/m² | - |
| 1788077791 | 20.56° C | 68% | 1007.6 hPa | - | - | 352 W/m² | - |
| 1788076889 | 20° C | 67% | 1007.5 hPa | - | - | 262 W/m² | - |
| 1788075989 | 19.44° C | 68% | 1007.4 hPa | - | - | 215 W/m² | - |
| 1788075088 | 19.44° C | 70% | 1007.6 hPa | - | - | 237 W/m² | - |
| 1788074186 | 18.89° C | 69% | 1007.7 hPa | - | - | 172 W/m² | - |
| 1788073285 | 18.33° C | 72% | 1007.6 hPa | - | - | 189 W/m² | - |
| 1788072384 | 17.78° C | 72% | 1007.6 hPa | - | - | 101 W/m² | - |
| 1788071483 | 17.22° C | 74% | 1007.5 hPa | - | - | 70 W/m² | - |
| 1788070583 | 17.22° C | 75% | 1007.6 hPa | - | - | 63 W/m² | - |
| 1788069682 | 17.22° C | 75% | 1007.6 hPa | - | - | 89 W/m² | - |
| 1788068781 | 16.67° C | 75% | 1007.6 hPa | - | - | 72 W/m² | - |
| 1788067879 | 16.67° C | 75% | 1007.5 hPa | - | - | 44 W/m² | - |
| 1788066978 | 16.67° C | 75% | 1007.6 hPa | - | - | 12 W/m² | - |
| 1788066077 | 16.11° C | 75% | 1007.7 hPa | - | - | 16 W/m² | - |
| 1788065176 | 16.11° C | 75% | 1007.6 hPa | - | - | 21 W/m² | - |
| 1788064275 | 16.11° C | 76% | 1007.7 hPa | - | - | 12 W/m² | - |
| 1788063375 | 16.11° C | 75% | 1007.7 hPa | - | - | 5 W/m² | - |
* Rain since midnight (hover to see other rain measurements)
** Current wind speed in m/s (hover to see current wind gust speed)